GFSSE_925_spd_021.txt.gz
Wind_Speed
9 9 9 7 5 4 4 6 7 8 7 6 9 11 11 11 11 11 11 9 8 8 7 10 11 11 11 10 9 9 9 8 9 9 10 11 11 12 12 12 11 12 12
13 10 9 7 5 7 6 7 7 8 7 5 6 8 9 10 9 10 12 15 11 10 9 8 10 11 11 10 10 9 9 9 10 10 11 12 12 11 11 10 11 11 11
13 11 10 8 7 9 7 8 8 8 5 4 5 7 6 5 5 7 9 11 13 14 11 9 8 10 11 10 9 9 9 9 11 12 9 10 10 9 8 8 8 8 9
12 10 10 9 8 9 9 9 10 8 6 9 11 10 11 12 12 10 9 8 8 10 13 11 9 8 9 10 9 8 8 11 11 8 8 12 11 9 8 7 6 7 7
11 9 10 11 9 12 10 9 9 8 9 8 9 9 9 10 10 12 12 12 11 9 9 11 12 9 7 7 8 7 9 12 12 9 8 7 12 8 8 6 5 5 4
11 10 9 13 12 12 10 10 11 11 9 8 8 9 9 9 10 10 10 10 9 10 7 8 7 9 7 7 7 6 8 10 10 8 10 11 11 9 7 3 2 1 1
12 11 9 13 14 12 12 13 12 11 11 8 7 8 8 7 8 9 10 9 10 11 11 9 8 7 6 7 6 6 7 10 9 8 9 8 8 10 8 4 2 1 2
13 11 11 12 15 14 12 13 13 12 9 8 6 6 6 6 7 8 8 8 9 9 9 8 8 7 7 10 5 4 6 8 5 7 5 8 8 8 7 4 2 2 3
13 12 12 13 14 14 13 14 14 12 10 8 5 4 6 7 6 7 7 7 7 7 6 6 6 5 5 5 6 4 6 6 5 6 8 8 9 6 7 6 3 2 3
14 14 14 16 15 13 13 14 14 13 11 8 7 5 6 7 5 6 9 7 6 5 4 4 4 6 6 4 4 4 5 5 4 3 10 8 9 11 12 5 3 2 3
16 16 16 17 16 17 15 14 14 13 12 10 8 7 9 4 5 5 5 6 5 4 3 3 3 5 7 7 4 4 6 1 1 3 6 8 7 10 8 8 11 8 7
18 18 18 18 18 18 17 16 15 14 11 10 9 9 7 6 6 7 4 3 4 5 7 5 4 6 6 3 4 5 3 2 2 3 5 8 7 10 9 10 6 6 7
19 18 19 19 19 20 20 18 18 15 14 12 12 10 9 8 7 5 3 2 1 6 2 4 4 3 4 3 3 3 2 2 2 2 2 4 1 9 9 9 7 3 4
19 21 21 22 22 23 22 21 19 17 16 14 14 13 11 9 8 6 5 5 3 1 1 2 2 3 4 4 3 3 2 2 1 1 3 2 3 6 8 8 9 6 4
21 23 25 24 25 25 26 23 21 20 19 16 15 15 13 11 9 8 7 5 4 3 2 1 1 1 2 2 3 2 2 2 1 1 4 6 4 2 7 8 9 6 8
25 25 26 27 28 27 28 26 25 22 19 18 16 16 15 12 11 9 8 7 5 4 3 3 2 1 0 0 1 1 1 1 0 1 1 6 7 6 4 7 9 8 8
27 25 26 27 28 29 28 27 25 23 21 20 18 17 17 15 13 11 9 8 7 6 5 4 3 2 1 2 2 2 1 2 2 1 1 1 4 9 9 7 7 7 7
28 27 27 27 30 31 30 28 26 24 23 22 20 18 19 17 15 13 11 10 9 8 7 6 5 4 3 3 4 4 4 4 5 3 2 1 1 2 5 11 8 8 6
27 28 29 30 32 32 32 29 28 27 26 24 22 20 21 19 17 15 13 12 11 9 9 8 7 6 5 5 5 6 6 6 7 8 6 3 4 4 5 8 12 11 11
24 26 29 29 32 33 31 30 28 27 27 26 25 23 21 21 20 18 15 14 13 11 10 10 9 7 6 5 6 7 7 7 7 9 9 8 8 6 6 7 9 7 12
16 23 26 29 31 33 30 30 31 31 29 28 27 26 25 24 24 23 19 17 17 14 13 12 10 9 7 5 6 7 8 7 8 9 9 7 8 8 8 9 10 9 11
12 16 23 27 29 32 31 32 32 30 29 28 27 28 28 28 26 24 21 21 19 17 15 14 13 10 8 6 4 4 3 5 7 7 9 6 6 7 8 11 10 12 13
26 27 22 23 27 30 29 31 29 28 26 26 30 30 32 30 28 26 24 21 20 18 18 17 15 13 10 8 6 5 3 3 3 8 8 8 6 8 11 11 12 14 14
25 25 24 26 25 28 31 31 32 30 28 34 33 32 31 32 29 28 25 24 22 21 18 18 16 14 12 11 7 8 5 3 2 3 4 6 11 11 12 14 14 15 16
27 28 27 25 26 26 31 34 35 35 31 27 27 29 30 32 31 30 28 26 24 23 20 19 18 16 14 11 11 9 7 6 7 6 6 7 11 13 13 15 17 17 17
29 26 26 27 27 25 29 30 36 37 36 29 28 29 31 32 33 32 31 29 27 25 22 22 20 18 16 13 11 10 8 7 8 8 7 12 13 16 16 15 16 17 19

GFSSE_925_spd_024.txt.gz
Wind_Speed
12 12 11 9 7 8 8 9 10 10 7 9 10 13 13 14 15 15 15 12 11 10 9 12 13 13 12 12 11 11 10 10 11 12 13 14 15 15 15 15 13 16 15
15 10 12 10 9 8 9 10 10 10 7 7 9 10 9 10 12 11 13 16 13 12 10 11 12 12 12 12 11 11 10 11 11 12 13 14 14 14 14 14 13 14 13
15 12 11 10 10 10 10 11 10 8 6 6 7 8 8 7 7 7 9 11 13 14 10 10 10 11 11 10 11 11 12 12 11 9 8 13 13 12 12 12 12 12 11
15 10 12 11 12 10 11 12 11 7 6 10 10 11 12 12 12 12 12 10 10 12 15 11 10 9 10 9 10 11 14 13 13 15 19 15 13 12 11 9 10 9 9
14 16 14 12 11 12 12 12 10 7 10 11 11 11 12 12 12 13 12 12 11 11 10 12 11 11 8 9 8 11 12 12 11 12 13 15 14 12 9 8 7 7 7
14 13 12 12 12 13 11 11 11 11 11 11 11 10 11 11 12 11 10 10 11 10 10 10 9 9 8 8 7 10 11 13 13 13 14 11 13 10 8 5 5 4 4
16 14 12 15 15 13 11 12 13 11 12 11 10 10 10 10 10 10 10 9 10 11 11 10 9 9 9 7 7 9 11 10 9 10 11 9 10 9 7 5 3 2 2
17 13 12 16 15 14 13 14 13 13 11 11 10 9 10 9 9 9 9 9 9 9 9 9 7 7 9 10 5 7 8 10 3 7 6 7 7 7 6 5 3 2 1
15 13 15 14 14 14 13 15 14 13 12 11 9 8 9 9 8 7 8 7 7 7 6 7 7 7 7 6 6 7 8 9 4 2 3 7 10 7 5 3 3 3 1
15 17 18 20 18 13 14 16 16 14 13 11 9 9 9 8 9 8 7 6 6 5 5 6 7 8 8 6 5 7 8 7 3 2 3 6 4 4 10 9 5 3 4
17 18 17 23 21 18 17 18 16 14 13 12 11 8 9 7 8 7 6 5 6 6 5 5 7 8 9 9 6 8 6 5 3 2 4 5 5 4 9 7 7 7 9
18 18 19 22 22 23 21 19 17 16 17 14 12 12 11 10 10 6 4 5 7 9 9 8 8 7 5 4 4 6 5 5 4 1 2 4 8 7 9 9 6 6 9
20 21 20 20 24 24 25 25 19 18 15 14 12 13 13 15 14 9 4 5 6 7 6 5 3 4 6 4 5 3 6 5 2 4 3 2 5 7 8 8 6 3 6
24 25 24 24 24 25 27 25 20 24 19 20 19 14 19 17 13 11 4 6 5 5 5 6 1 5 6 6 4 4 3 5 3 3 3 3 1 6 7 7 4 3 1
22 24 27 25 23 27 26 27 21 26 24 22 21 20 21 16 15 13 14 9 8 8 6 4 4 3 4 5 5 4 4 5 5 1 4 4 3 0 4 6 6 6 4
20 22 28 29 28 23 28 28 28 24 24 23 24 24 22 20 18 18 15 13 11 10 9 6 6 7 4 3 2 3 4 2 4 4 2 3 3 4 3 3 5 6 6
25 24 27 31 31 29 27 29 29 28 25 25 27 26 25 22 21 20 18 16 13 13 9 10 9 7 7 6 4 4 3 5 4 3 4 1 1 3 5 4 4 4 5
23 23 22 30 34 33 29 27 29 31 27 27 25 27 26 25 23 21 20 18 16 14 15 13 11 9 8 7 7 8 6 6 6 7 7 7 6 2 4 7 7 5 4
25 22 24 21 31 32 30 26 27 29 29 28 27 28 28 29 27 25 23 21 21 19 16 15 13 11 9 8 8 7 8 9 7 10 10 7 6 6 5 6 5 6 7
32 15 18 18 23 32 30 28 26 29 31 31 31 29 30 32 31 28 26 24 23 20 18 17 15 13 11 9 9 9 9 11 10 12 11 11 9 9 8 6 7 5 5
45 42 41 40 18 19 28 29 26 28 30 29 31 30 31 34 33 31 29 26 25 24 22 20 17 15 14 11 6 9 13 12 12 10 12 10 9 12 7 6 7 6 8
36 39 41 39 39 37 17 31 31 32 31 31 31 31 33 35 37 36 32 30 29 25 22 22 20 18 15 14 6 3 2 5 13 12 14 12 7 7 6 8 8 7 9
32 35 37 38 37 36 36 19 29 27 28 29 32 36 37 37 37 37 35 33 31 29 27 26 24 21 18 15 14 6 0 3 3 11 13 10 9 7 8 6 11 11 10
29 27 29 31 33 35 39 32 21 29 26 30 35 38 37 37 36 38 36 34 32 31 29 29 26 25 19 18 14 14 8 1 2 2 6 11 6 8 8 12 10 9 12
30 26 27 30 26 29 33 38 32 26 30 31 32 35 35 37 37 38 37 35 34 34 30 30 28 26 25 17 18 12 11 7 5 3 3 4 4 8 6 10 15 16 14
28 25 24 28 28 29 30 29 36 32 27 28 29 31 33 36 38 38 40 38 37 35 34 31 29 27 23 22 14 15 14 6 9 6 3 5 5 9 11 12 12 12 16

GFSSE_925_spd_027.txt.gz
Wind_Speed
14 15 12 11 12 11 12 12 12 11 11 12 13 13 14 14 15 17 14 13 13 12 14 14 14 13 13 13 11 12 12 12 13 13 14 16 16 15 15 16 18 18 17
18 16 14 12 13 11 12 12 12 10 9 9 9 10 10 9 11 12 14 16 13 12 12 13 13 14 13 11 11 13 13 14 14 14 14 14 15 15 15 15 16 16 15
18 17 15 13 13 12 13 13 12 9 9 9 9 9 8 8 7 9 11 11 15 12 11 11 12 12 12 12 13 14 15 13 8 10 13 14 13 12 12 13 13 13 14
17 16 16 14 14 13 13 12 11 9 10 11 12 12 12 12 13 14 12 9 12 13 12 11 10 11 11 13 12 15 14 13 15 17 14 14 12 11 10 11 11 10 11
18 15 17 15 15 14 14 13 11 10 12 13 14 14 14 13 13 13 13 12 11 9 11 10 11 9 10 12 13 13 12 13 15 17 15 14 12 9 9 8 8 8 8
22 20 17 15 14 15 15 13 11 10 12 13 14 14 13 13 13 12 12 12 11 9 9 9 9 8 10 11 12 13 14 12 12 13 12 11 12 8 6 5 4 5 5
24 22 16 14 15 14 13 12 12 12 12 12 12 13 13 12 12 12 11 12 12 11 9 8 8 9 9 10 11 12 11 9 7 5 8 8 8 8 6 4 3 2 3
23 20 17 15 16 14 13 14 14 13 13 12 12 12 12 11 11 12 11 11 11 10 9 9 9 10 11 8 9 11 12 8 6 3 3 3 4 4 3 3 2 2 2
24 22 18 17 17 15 14 14 15 15 14 13 12 12 11 10 10 10 10 9 9 9 8 9 9 9 10 8 10 11 11 9 6 5 4 5 9 7 3 1 2 2 1
24 22 20 20 19 19 18 16 16 15 15 14 13 13 12 10 11 11 9 8 8 8 9 9 10 10 8 8 10 11 10 6 7 7 10 7 2 1 6 6 6 5 4
26 22 22 23 21 21 21 20 18 17 16 15 14 14 11 11 10 9 7 7 8 8 9 10 11 11 11 10 10 9 8 5 8 9 7 9 5 3 5 5 4 5 5
26 27 26 28 26 23 21 22 23 20 19 18 16 15 14 11 10 8 6 9 10 10 10 11 10 8 8 9 10 9 8 4 7 7 4 4 6 5 5 5 4 4 6
29 28 29 28 29 26 26 23 23 25 22 20 18 17 17 15 15 11 8 11 11 11 10 8 7 7 8 6 7 10 8 5 6 4 2 2 6 6 6 5 6 4 4
27 30 29 28 29 29 29 30 25 25 24 22 20 18 22 21 19 15 11 11 11 9 9 7 5 9 10 8 7 8 9 6 5 5 2 1 5 6 5 4 3 3 4
23 31 33 30 26 32 35 34 30 27 23 22 23 21 23 25 21 19 14 13 12 11 10 10 8 8 9 9 9 8 8 8 6 5 2 1 2 5 5 4 5 4 1
27 24 36 36 33 29 38 35 33 28 23 22 23 25 23 26 23 20 18 15 15 14 13 10 10 10 9 8 9 9 8 7 7 6 4 3 2 3 4 4 4 5 5
30 26 33 38 37 36 36 36 33 29 26 28 29 28 27 28 24 23 23 20 17 16 15 13 13 12 11 9 7 7 7 8 7 7 6 4 4 3 2 2 2 4 4
17 28 11 37 41 37 34 36 37 35 32 32 32 28 29 29 25 25 26 23 19 18 18 17 17 15 13 12 10 10 9 8 9 9 9 7 6 5 2 1 3 2 2
43 41 37 27 9 31 40 33 37 38 38 35 32 31 32 32 28 28 28 26 23 22 21 21 19 16 15 13 12 10 12 11 10 12 13 10 7 6 3 3 4 4 2
38 41 41 40 41 14 11 15 28 34 37 37 35 35 33 34 33 30 30 29 27 27 25 23 20 18 16 14 12 11 11 13 14 13 15 13 11 9 6 4 3 1 2
38 39 38 36 37 38 29 21 19 25 38 39 38 38 37 36 35 36 33 32 32 33 30 26 22 21 18 13 11 12 15 14 15 14 15 13 11 12 10 5 3 2 2
34 36 39 39 34 30 35 34 28 21 22 37 42 41 39 37 37 38 38 35 35 34 30 28 26 23 19 18 7 3 1 5 17 16 15 14 12 8 12 7 6 7 6
35 38 38 39 36 34 34 34 37 34 27 18 29 37 38 40 40 41 42 40 38 37 35 32 30 28 23 21 19 6 2 4 1 9 15 18 15 11 10 9 7 7 8
34 37 36 32 33 35 36 37 32 26 23 25 23 32 41 42 42 43 44 43 41 40 38 36 33 31 27 22 20 20 8 3 3 1 5 16 15 12 10 9 8 6 7
28 32 34 31 29 28 30 34 38 30 29 33 35 30 38 43 43 44 45 44 43 42 41 38 36 34 32 28 25 15 15 10 7 3 2 3 9 10 7 6 8 9 9
23 30 28 29 30 25 27 31 34 39 34 30 30 33 33 41 43 43 45 46 45 44 44 41 39 36 35 29 28 23 18 8 9 5 2 4 5 8 11 12 11 9 9

GFSSE_925_spd_030.txt.gz
Wind_Speed
19 18 15 14 13 13 13 13 12 12 12 12 13 13 14 15 14 13 13 12 12 13 12 13 12 12 12 12 14 14 13 14 15 15 15 15 15 16 16 16 16 16 15
23 21 17 15 15 15 13 12 11 10 9 10 10 9 10 10 11 13 13 12 12 11 11 12 12 11 12 13 13 15 16 16 16 15 14 14 14 15 14 15 14 14 13
23 22 18 16 16 15 14 12 11 9 9 9 9 9 8 8 9 10 11 13 12 11 9 10 11 11 13 13 16 15 13 12 13 14 13 13 12 12 12 12 12 13 12
21 22 19 17 16 16 15 14 11 9 10 10 10 9 9 9 11 10 9 12 13 11 9 9 10 11 12 13 15 14 14 11 14 13 13 12 11 10 10 9 9 11 10
20 20 19 17 16 15 16 14 13 11 12 11 11 11 11 12 12 11 12 11 11 12 9 10 9 11 12 12 12 12 14 17 17 13 12 11 11 8 8 7 8 8 9
23 19 19 18 17 17 15 14 13 13 13 13 12 12 12 12 12 10 11 12 11 9 9 8 9 11 11 12 11 14 15 15 14 11 9 9 9 6 6 5 5 5 6
25 22 20 17 16 16 16 14 13 13 14 14 13 12 12 11 11 10 11 11 11 11 10 9 8 9 11 12 11 12 12 10 9 7 9 7 6 5 5 3 3 3 4
27 24 21 18 16 17 16 15 15 14 14 14 13 12 11 11 11 11 10 11 11 11 11 10 10 11 10 11 11 10 11 9 7 6 6 4 3 3 1 2 2 2 3
27 28 25 21 18 17 16 16 15 14 13 13 13 12 11 11 10 10 10 10 10 10 10 10 11 12 12 11 12 12 10 9 8 5 6 4 9 5 2 1 2 2 2
30 28 26 23 20 19 19 18 17 16 15 14 14 13 13 12 11 11 10 10 10 10 10 10 11 12 12 12 13 11 10 10 9 9 9 6 2 2 5 4 5 5 4
28 28 26 24 22 20 20 21 19 18 17 16 14 14 13 12 11 11 10 9 9 10 10 11 11 11 12 12 12 12 10 10 10 10 11 9 5 3 3 2 3 4 3
29 31 29 28 25 24 22 22 22 21 20 18 18 17 15 14 12 10 8 9 9 9 11 11 11 10 11 12 11 9 10 10 10 11 9 7 6 5 4 5 5 3 4
35 34 34 32 29 27 26 25 25 25 23 22 20 19 16 16 14 12 10 10 10 10 11 12 10 9 10 11 11 9 9 10 10 9 6 5 6 6 5 5 6 5 3
30 36 36 35 33 32 30 28 28 28 26 24 22 20 20 20 18 15 11 11 11 11 10 10 9 9 10 10 10 11 9 10 9 7 5 4 7 7 5 4 4 5 5
27 33 39 38 37 36 35 32 31 31 30 26 25 24 22 24 21 19 15 13 12 12 11 11 9 11 11 10 10 10 9 9 9 7 5 4 6 6 4 4 4 3 4
13 13 14 36 40 38 39 38 38 35 33 30 27 27 26 25 23 21 19 17 15 14 12 11 10 11 11 10 9 9 9 9 8 7 6 4 4 5 4 3 4 4 4
31 26 21 8 29 28 40 42 40 40 37 35 32 29 29 27 26 26 23 22 19 16 15 15 14 13 13 12 11 11 11 10 9 8 7 6 6 5 3 3 3 4 3
39 40 41 30 12 8 22 20 20 30 40 39 35 32 30 30 28 28 26 24 21 19 19 19 17 16 15 14 13 12 12 11 10 10 10 8 7 6 5 3 1 3 3
37 41 41 40 37 30 18 7 21 21 32 36 35 34 34 34 32 31 30 26 24 24 23 22 21 19 18 17 15 13 14 14 12 13 13 11 8 7 6 3 4 3 4
33 39 39 37 38 38 33 22 23 6 20 31 34 37 36 37 36 35 32 28 28 27 26 25 24 22 19 17 14 14 14 15 16 16 16 15 13 10 8 6 5 5 5
36 35 34 35 34 35 36 35 30 29 24 12 27 32 35 39 38 37 34 31 32 32 31 28 26 24 22 17 13 14 15 15 17 19 19 19 18 15 13 10 7 6 5
33 33 33 31 30 30 29 30 23 20 26 25 22 18 28 33 39 38 38 36 36 35 34 32 30 27 24 19 8 3 2 6 20 19 20 19 19 17 18 15 11 10 10
31 31 30 30 28 25 26 28 30 26 29 28 30 28 25 27 37 41 41 40 38 38 38 38 36 32 28 25 22 6 1 5 1 10 21 20 19 18 16 16 14 12 12
27 29 26 28 29 21 24 27 27 25 20 23 25 25 27 25 28 40 43 43 43 42 41 42 40 36 32 27 22 24 10 3 3 1 7 18 21 19 17 16 14 14 12
23 28 28 26 31 19 24 23 23 26 25 22 25 28 29 29 29 30 44 47 47 47 45 45 42 39 38 32 28 14 23 12 8 3 3 4 16 20 18 16 14 12 13
18 25 26 26 25 24 25 26 26 27 27 25 27 26 29 33 33 31 32 45 50 50 49 47 46 43 41 40 35 32 21 9 10 6 2 4 7 13 16 15 14 14 12

GFSSE_925_spd_033.txt.gz
Wind_Speed
18 18 16 15 15 14 14 13 14 12 11 11 12 11 11 10 9 10 10 9 10 11 12 11 11 11 11 12 13 14 14 15 15 15 15 16 15 16 15 15 15 15 14
23 21 18 16 16 15 15 13 12 11 10 10 10 9 9 8 9 8 10 9 8 9 11 11 11 11 11 12 13 14 15 16 15 15 15 15 14 14 13 13 14 13 13
23 23 18 17 16 15 14 13 12 10 9 8 8 7 7 7 8 9 10 8 8 7 9 10 11 11 11 13 12 13 14 14 15 14 13 13 12 11 11 11 11 12 11
24 23 20 17 16 15 14 13 11 10 10 9 8 7 7 7 8 7 10 7 7 5 7 9 10 11 12 12 12 10 11 13 13 12 11 11 10 9 9 8 9 9 9
23 23 20 19 17 16 14 12 11 10 10 10 8 8 8 9 9 8 10 9 8 7 7 7 9 10 12 12 10 10 12 14 12 11 10 9 10 8 7 7 8 7 8
21 20 19 17 16 16 14 13 11 10 10 10 9 8 8 8 7 7 9 9 8 6 6 7 8 9 10 10 11 12 14 14 13 12 10 8 8 6 6 6 6 6 6
22 20 18 17 16 16 15 13 11 10 10 9 9 8 8 7 7 6 7 8 8 6 5 4 7 10 9 10 11 12 12 12 11 11 10 7 6 5 5 4 4 4 4
21 21 20 18 16 17 18 15 13 11 10 10 9 8 8 7 6 6 5 6 7 8 7 6 5 7 8 10 10 11 10 10 9 8 7 4 3 3 1 2 3 4 4
22 23 22 20 17 16 16 16 14 13 12 11 10 9 8 7 6 6 5 5 5 6 7 7 7 10 7 9 9 11 9 9 8 5 3 5 7 3 2 2 3 3 4
25 25 25 23 20 19 17 15 15 15 14 13 12 10 9 7 6 6 5 5 5 5 5 5 7 9 9 11 9 10 10 9 7 6 5 4 2 2 5 3 2 4 5
25 27 26 25 23 22 19 17 16 16 17 15 14 12 10 11 9 9 8 6 5 5 5 5 6 10 12 11 11 9 9 9 9 9 8 7 4 2 1 0 3 3 3
27 30 30 28 27 24 22 20 20 18 19 18 17 15 15 13 11 10 8 6 6 6 6 6 6 7 9 10 10 9 9 10 8 8 9 8 6 3 2 3 4 4 3
15 29 33 32 30 28 27 24 24 23 22 22 20 18 17 15 14 13 11 8 8 8 9 9 9 8 8 9 10 8 10 10 9 8 7 6 6 4 3 2 5 3 3
10 21 23 27 32 32 30 28 27 27 26 25 25 23 21 19 18 17 13 10 10 9 9 9 9 8 8 9 10 10 10 10 9 8 7 5 5 5 3 3 4 4 4
22 13 11 28 32 32 32 32 31 31 31 28 27 27 26 24 23 20 17 14 12 13 11 10 10 10 10 9 10 10 11 10 10 9 7 5 6 6 4 3 3 4 4
30 27 16 10 29 33 33 31 27 25 27 30 30 30 28 26 25 23 20 18 16 15 13 12 11 10 10 10 9 9 10 10 10 9 8 6 6 7 5 5 4 3 4
31 35 33 29 4 16 24 28 28 26 27 30 31 30 30 28 27 25 23 22 19 17 15 14 13 13 12 12 12 11 11 11 11 10 9 8 7 7 6 5 6 5 4
35 37 37 37 32 24 2 13 20 25 26 29 31 30 31 32 29 28 26 26 22 20 19 18 16 15 15 15 14 13 13 13 13 12 11 11 10 8 7 6 4 5 5
32 34 35 36 34 32 23 26 9 6 14 22 29 33 31 33 34 33 31 29 25 24 24 21 20 19 19 18 16 15 16 16 15 14 14 14 12 10 9 7 6 5 6
31 32 32 32 32 31 29 25 22 24 27 10 16 27 30 32 34 36 35 31 28 28 27 25 24 22 21 19 17 18 17 17 20 20 18 17 16 13 11 10 8 8 7
29 30 31 31 27 29 30 29 27 23 20 22 23 13 13 24 30 35 38 36 33 33 32 29 26 25 23 19 13 16 20 20 22 23 21 21 20 17 16 14 11 9 8
25 24 26 28 22 24 26 25 20 17 18 20 21 19 19 18 12 23 33 39 40 36 34 32 31 28 25 22 9 3 3 6 26 27 24 25 24 21 20 18 16 12 11
22 23 21 22 17 20 21 23 23 20 20 23 23 23 22 21 22 19 20 31 40 41 40 38 36 34 31 26 26 9 1 5 2 8 24 24 24 24 22 21 20 17 14
15 17 16 17 14 16 18 20 21 21 22 21 21 21 21 21 22 22 20 17 30 37 40 42 41 40 36 28 22 28 18 6 4 3 7 21 24 24 23 22 21 20 18
11 13 13 12 11 12 14 17 20 22 23 21 18 19 20 24 23 22 21 22 21 25 39 43 40 41 43 30 32 18 30 16 11 3 3 5 19 25 24 22 21 20 19
11 12 12 8 10 12 15 17 21 22 24 24 20 17 21 22 23 23 21 22 23 24 29 39 44 45 43 44 39 35 25 11 13 6 2 6 7 12 23 23 22 20 19

GFSSE_925_spd_036.txt.gz
Wind_Speed
14 18 16 15 13 11 9 9 9 8 9 9 9 9 7 6 6 7 7 8 9 10 9 10 10 10 11 11 12 13 13 14 15 16 16 17 15 14 14 15 15 15 14
20 20 17 15 14 12 11 11 10 9 8 7 6 6 6 6 5 7 5 7 7 9 9 9 9 10 11 12 12 13 14 15 15 15 16 15 14 13 13 14 13 12 12
21 21 18 16 15 14 12 10 8 7 6 6 5 4 3 4 6 5 5 5 6 6 8 8 8 9 10 11 12 13 13 13 14 14 13 13 12 11 11 12 10 10 11
22 21 19 16 16 13 11 9 8 7 6 6 5 4 3 3 3 3 5 4 4 4 6 8 7 8 10 10 10 11 11 12 12 12 11 11 10 9 8 8 9 8 9
22 22 20 17 15 13 11 10 8 7 7 6 6 5 3 4 3 2 5 4 4 2 3 6 7 6 8 8 9 8 10 11 11 9 9 9 9 7 8 8 7 8 8
20 19 17 16 15 14 12 10 9 8 7 6 5 4 4 4 2 3 4 3 2 1 3 3 5 5 6 6 7 9 13 10 10 9 9 7 6 6 7 6 5 6 7
19 18 17 15 15 16 14 12 10 9 8 6 5 5 5 4 2 1 3 4 5 1 0 1 3 3 5 6 7 9 10 8 8 9 8 7 6 4 5 4 3 3 5
17 18 17 16 15 14 14 13 12 10 9 8 7 5 5 4 3 2 1 2 2 3 3 4 3 2 4 4 5 7 7 7 7 7 5 3 3 2 1 1 2 3 3
16 17 18 17 15 14 14 15 14 12 11 10 9 7 6 4 4 2 1 1 1 2 2 2 4 2 4 5 5 6 7 6 6 6 4 2 3 2 1 1 2 3 4
17 18 19 19 17 17 16 15 14 13 12 11 10 9 8 6 5 4 2 2 2 1 1 2 3 9 7 8 9 7 6 6 5 5 1 2 2 4 4 3 2 3 5
13 16 18 19 19 18 18 17 15 14 14 14 14 12 10 10 8 7 6 4 3 3 2 2 2 7 8 11 11 8 7 7 7 5 3 3 1 1 2 2 2 2 4
11 15 16 18 18 19 20 19 18 17 18 17 17 16 15 13 11 10 9 7 5 4 4 3 3 6 8 9 9 10 10 9 8 8 7 7 6 4 3 3 4 4 2
9 12 17 19 19 23 24 22 21 21 19 19 19 19 18 16 15 14 13 10 8 8 8 8 8 7 7 8 9 9 10 10 9 8 8 8 7 6 5 5 4 7 6
17 13 7 19 26 26 27 26 24 23 21 20 20 19 19 19 18 16 15 13 10 10 9 9 9 8 8 8 9 9 10 10 10 9 8 8 6 5 3 2 5 8 8
29 24 20 11 22 27 29 29 27 26 25 23 22 22 22 22 21 19 17 16 13 12 11 10 10 9 10 10 10 10 10 10 10 10 9 7 6 7 6 4 4 5 6
33 33 29 23 6 13 23 27 28 26 25 25 25 25 24 25 24 23 21 20 17 15 13 12 11 11 9 10 9 9 10 11 11 11 10 8 8 8 7 6 5 4 4
31 34 36 32 26 11 8 13 21 25 24 24 25 27 27 27 28 26 26 25 22 18 16 15 14 14 12 12 12 11 10 11 11 12 11 10 9 8 8 7 7 6 5
30 31 31 31 31 26 26 11 7 11 16 20 24 26 28 29 30 30 29 30 26 23 21 19 18 17 15 15 14 13 13 13 13 14 13 12 11 10 9 8 6 7 6
27 28 28 29 30 28 26 22 24 20 9 10 17 20 23 26 29 31 33 33 28 26 26 23 22 20 19 18 17 15 15 16 15 16 16 15 14 13 11 10 9 8 7
23 24 25 24 26 25 25 23 21 20 21 21 19 10 12 17 21 27 31 34 32 28 29 27 26 24 22 19 17 17 17 18 18 20 19 18 17 17 14 13 12 11 9
21 23 23 19 21 23 25 25 24 23 21 20 19 17 16 16 10 14 21 29 33 33 32 33 29 26 25 20 13 16 20 21 23 24 23 23 22 20 19 17 15 13 12
18 18 19 16 16 17 16 16 15 17 19 19 19 17 16 16 15 14 10 16 23 31 33 34 32 30 28 24 11 3 2 5 19 29 28 27 25 23 23 21 19 17 14
14 15 15 12 12 12 12 12 12 13 17 18 20 18 17 16 16 16 14 13 12 20 31 32 35 35 26 26 27 9 2 5 2 6 16 27 25 26 25 24 22 21 18
11 12 12 11 11 12 12 14 15 16 16 18 20 19 16 15 17 17 16 13 12 13 20 23 34 35 34 24 25 31 20 6 4 3 5 11 24 26 26 26 25 24 22
12 15 15 15 13 13 13 14 15 16 16 17 17 17 12 18 18 18 16 15 14 13 14 17 23 30 36 31 31 16 29 14 10 4 4 5 12 24 28 26 25 24 24
15 19 21 20 19 15 16 17 18 19 19 17 14 15 18 20 21 21 20 17 15 16 16 17 19 26 32 36 35 33 24 12 13 7 3 6 7 9 22 27 28 26 25